CFG449 YSSY-YMML

Flight info

Callsign CFG449
Flight time 1h 9m
Altitude 36000
Route WOL2 WOL H65 LEECE Q29 ML DCT
Aircraft A321/M-SDE3FGHIRWY/LB1

Departure

Time 2026-04-26 08:00
Airport Sydney Kingsford Smith International Airport (YSSY)

Arrival

Time 2026-04-26 09:09
Airport Melbourne Airport (YMML)
Time Latitude Longitude Altitude Speed Heading
2026-04-26 06:53 -33.93795 151.16953 21 ft 0 kts 255°
2026-04-26 07:26 -33.93791 151.16973 21 ft 4 kts 259°
2026-04-26 07:26 -33.93787 151.17005 21 ft 4 kts 264°
2026-04-26 07:26 -33.93783 151.17037 21 ft 4 kts 244°
2026-04-26 07:26 -33.93774 151.17051 21 ft 1 kts 170°
2026-04-26 07:27 -33.93773 151.17051 21 ft 0 kts 170°
2026-04-26 07:45 -33.93784 151.17053 23 ft 4 kts 170°
2026-04-26 07:45 -33.93825 151.17063 21 ft 7 kts 167°
2026-04-26 07:46 -33.93891 151.17082 21 ft 10 kts 167°
2026-04-26 07:46 -33.93954 151.17099 20 ft 9 kts 167°
2026-04-26 07:46 -33.93984 151.17154 20 ft 8 kts 86°
2026-04-26 07:46 -33.93973 151.17222 19 ft 8 kts 76°
2026-04-26 07:47 -33.93959 151.17282 18 ft 4 kts 75°
2026-04-26 07:47 -33.93948 151.17330 18 ft 8 kts 75°
2026-04-26 07:47 -33.93931 151.17407 18 ft 11 kts 75°
2026-04-26 07:47 -33.93910 151.17500 20 ft 12 kts 74°
2026-04-26 07:48 -33.93891 151.17579 19 ft 0 kts 74°
2026-04-26 07:48 -33.93887 151.17599 19 ft 7 kts 74°
2026-04-26 07:48 -33.93871 151.17661 19 ft 8 kts 73°
2026-04-26 07:48 -33.93860 151.17721 19 ft 7 kts 88°
2026-04-26 07:49 -33.93875 151.17760 22 ft 4 kts 131°
2026-04-26 07:49 -33.93896 151.17776 21 ft 4 kts 155°
2026-04-26 07:49 -33.93916 151.17782 21 ft 2 kts 168°
2026-04-26 07:50 -33.93919 151.17783 21 ft 0 kts 168°
2026-04-26 07:50 -33.93955 151.17792 22 ft 11 kts 168°
2026-04-26 07:50 -33.94042 151.17815 23 ft 13 kts 167°
2026-04-26 07:51 -33.94122 151.17836 23 ft 11 kts 168°
2026-04-26 07:51 -33.94219 151.17861 24 ft 17 kts 168°
2026-04-26 07:51 -33.94335 151.17892 25 ft 17 kts 168°
2026-04-26 07:51 -33.94445 151.17908 24 ft 15 kts 192°
2026-04-26 07:52 -33.94547 151.17890 23 ft 15 kts 169°
2026-04-26 07:52 -33.94638 151.17913 23 ft 15 kts 168°
2026-04-26 07:52 -33.94760 151.17944 21 ft 19 kts 168°
2026-04-26 07:52 -33.94888 151.17977 22 ft 18 kts 168°
2026-04-26 07:53 -33.94999 151.18005 25 ft 15 kts 168°
2026-04-26 07:53 -33.95084 151.18039 26 ft 12 kts 140°
2026-04-26 07:53 -33.95092 151.18161 25 ft 18 kts 77°
2026-04-26 07:53 -33.95067 151.18308 25 ft 18 kts 78°
2026-04-26 07:54 -33.95047 151.18417 30 ft 0 kts 78°
2026-04-26 07:54 -33.95047 151.18418 30 ft 1 kts 78°
2026-04-26 07:55 -33.95044 151.18452 26 ft 13 kts 88°
2026-04-26 07:55 -33.95135 151.18564 26 ft 22 kts 143°
2026-04-26 07:55 -33.95250 151.18683 31 ft 21 kts 149°
2026-04-26 07:55 -33.95389 151.18740 24 ft 21 kts 167°
2026-04-26 07:56 -33.95533 151.18779 24 ft 21 kts 168°
2026-04-26 07:56 -33.95666 151.18814 27 ft 18 kts 167°
2026-04-26 07:56 -33.95802 151.18850 28 ft 21 kts 168°
2026-04-26 07:56 -33.95947 151.18887 27 ft 21 kts 168°
2026-04-26 07:57 -33.96097 151.18925 29 ft 23 kts 168°
2026-04-26 07:57 -33.96250 151.18965 26 ft 22 kts 167°
2026-04-26 07:57 -33.96396 151.19002 23 ft 22 kts 168°
2026-04-26 07:57 -33.96552 151.19043 19 ft 23 kts 168°
2026-04-26 07:58 -33.96707 151.19075 19 ft 22 kts 181°
2026-04-26 07:58 -33.96856 151.19077 19 ft 21 kts 169°
2026-04-26 07:58 -33.96986 151.19110 20 ft 16 kts 168°
2026-04-26 07:58 -33.97079 151.19135 21 ft 13 kts 165°
2026-04-26 07:59 -33.97129 151.19212 21 ft 15 kts 91°
2026-04-26 07:59 -33.97096 151.19347 22 ft 17 kts 48°
2026-04-26 07:59 -33.96979 151.19354 20 ft 21 kts 347°
2026-04-26 07:59 -33.96671 151.19275 20 ft 78 kts 348°
2026-04-26 08:00 -33.95956 151.19090 29 ft 131 kts 347°
2026-04-26 08:00 -33.94925 151.18816 92 ft 165 kts 345°
2026-04-26 08:00 -33.93911 151.18421 850 ft 147 kts 350°
2026-04-26 08:00 -33.92947 151.18694 1218 ft 150 kts 46°
2026-04-26 08:01 -33.92452 151.19839 1537 ft 167 kts 73°
2026-04-26 08:01 -33.92537 151.21299 1830 ft 185 kts 108°
2026-04-26 08:01 -33.93153 151.22687 2379 ft 189 kts 115°
2026-04-26 08:01 -33.93726 151.24105 2913 ft 189 kts 103°
2026-04-26 08:02 -33.93821 151.25680 3414 ft 192 kts 85°
2026-04-26 08:02 -33.93775 151.27371 3618 ft 212 kts 85°
2026-04-26 08:02 -33.93718 151.29235 3754 ft 235 kts 85°
2026-04-26 08:02 -33.93655 151.31308 4006 ft 259 kts 86°
2026-04-26 08:03 -33.93591 151.33521 4637 ft 269 kts 86°
2026-04-26 08:03 -33.93523 151.35796 4933 ft 273 kts 86°
2026-04-26 08:03 -33.93460 151.38069 5006 ft 271 kts 86°
2026-04-26 08:03 -33.93397 151.40332 5015 ft 270 kts 87°
2026-04-26 08:04 -33.93332 151.42604 5131 ft 275 kts 86°
2026-04-26 08:04 -33.93265 151.44906 5967 ft 275 kts 87°
2026-04-26 08:04 -33.93197 151.47214 6786 ft 277 kts 88°
2026-04-26 08:04 -33.93210 151.49547 7521 ft 280 kts 97°
2026-04-26 08:05 -33.93723 151.51772 8246 ft 283 kts 115°
2026-04-26 08:05 -33.94779 151.53787 8936 ft 287 kts 131°
2026-04-26 08:05 -33.96283 151.55371 9667 ft 289 kts 148°
2026-04-26 08:05 -33.98122 151.56362 10408 ft 292 kts 165°
2026-04-26 08:06 -34.00195 151.56586 10689 ft 311 kts 186°
2026-04-26 08:06 -34.02323 151.55789 10831 ft 333 kts 210°
2026-04-26 08:06 -34.04106 151.53952 11234 ft 343 kts 230°
2026-04-26 08:06 -34.05646 151.51724 11874 ft 348 kts 230°
2026-04-26 08:07 -34.07205 151.49479 12544 ft 351 kts 230°
2026-04-26 08:07 -34.08786 151.47215 13204 ft 354 kts 230°
2026-04-26 08:07 -34.10383 151.44929 13860 ft 358 kts 230°
2026-04-26 08:07 -34.11993 151.42620 14455 ft 362 kts 230°
2026-04-26 08:08 -34.13621 151.40282 15019 ft 366 kts 230°
2026-04-26 08:08 -34.15265 151.37924 15592 ft 369 kts 230°
2026-04-26 08:08 -34.16929 151.35531 16149 ft 373 kts 230°
2026-04-26 08:08 -34.18604 151.33121 16724 ft 377 kts 230°
2026-04-26 08:09 -34.20298 151.30677 17249 ft 381 kts 230°
2026-04-26 08:09 -34.22011 151.28207 17801 ft 385 kts 230°
2026-04-26 08:09 -34.23737 151.25713 18327 ft 389 kts 230°
2026-04-26 08:09 -34.25481 151.23191 18830 ft 393 kts 230°
2026-04-26 08:10 -34.27238 151.20643 19298 ft 396 kts 230°
2026-04-26 08:10 -34.29005 151.18081 19760 ft 399 kts 230°
2026-04-26 08:10 -34.30793 151.15496 20230 ft 402 kts 230°
2026-04-26 08:10 -34.32593 151.12897 20678 ft 405 kts 230°
2026-04-26 08:11 -34.34405 151.10278 21159 ft 407 kts 230°
2026-04-26 08:11 -34.36229 151.07632 21600 ft 410 kts 230°
2026-04-26 08:11 -34.38056 151.04968 22034 ft 414 kts 230°
2026-04-26 08:11 -34.39904 151.02274 22505 ft 416 kts 231°
2026-04-26 08:12 -34.41761 150.99570 22945 ft 419 kts 231°
2026-04-26 08:12 -34.43633 150.96847 23402 ft 421 kts 230°
2026-04-26 08:12 -34.45517 150.94110 23822 ft 424 kts 230°
2026-04-26 08:12 -34.47412 150.91357 24175 ft 427 kts 230°
2026-04-26 08:13 -34.49315 150.88587 24562 ft 429 kts 230°
2026-04-26 08:13 -34.51226 150.85800 24926 ft 431 kts 231°
2026-04-26 08:13 -34.53139 150.83003 25319 ft 432 kts 231°
2026-04-26 08:13 -34.55054 150.80191 25700 ft 433 kts 231°
2026-04-26 08:14 -34.56950 150.77342 26069 ft 434 kts 233°
2026-04-26 08:14 -34.58780 150.74418 26453 ft 436 kts 234°
2026-04-26 08:14 -34.60564 150.71441 26824 ft 437 kts 235°
2026-04-26 08:14 -34.62330 150.68428 27190 ft 439 kts 235°
2026-04-26 08:15 -34.64096 150.65407 27558 ft 440 kts 235°
2026-04-26 08:15 -34.65879 150.62381 27909 ft 442 kts 235°
2026-04-26 08:15 -34.67685 150.59345 28266 ft 443 kts 235°
2026-04-26 08:15 -34.69499 150.56316 28601 ft 444 kts 234°
2026-04-26 08:16 -34.71326 150.53280 28947 ft 446 kts 234°
2026-04-26 08:16 -34.73164 150.50234 29284 ft 447 kts 234°
2026-04-26 08:16 -34.75007 150.47181 29599 ft 449 kts 234°
2026-04-26 08:16 -34.76851 150.44118 29904 ft 450 kts 234°
2026-04-26 08:17 -34.78700 150.41036 30190 ft 452 kts 235°
2026-04-26 08:17 -34.80527 150.37981 30458 ft 453 kts 234°
2026-04-26 08:17 -34.82381 150.34874 30715 ft 454 kts 235°
2026-04-26 08:17 -34.84241 150.31755 30981 ft 456 kts 234°
2026-04-26 08:18 -34.86101 150.28631 31322 ft 455 kts 234°
2026-04-26 08:18 -34.87951 150.25518 31718 ft 453 kts 234°
2026-04-26 08:18 -34.89796 150.22419 32111 ft 451 kts 234°
2026-04-26 08:18 -34.91637 150.19327 32498 ft 450 kts 234°
2026-04-26 08:19 -34.93465 150.16247 32879 ft 449 kts 234°
2026-04-26 08:19 -34.95290 150.13165 33251 ft 447 kts 234°
2026-04-26 08:19 -34.97106 150.10094 33636 ft 446 kts 234°
2026-04-26 08:19 -34.98913 150.07039 34045 ft 444 kts 234°
2026-04-26 08:20 -35.00715 150.03999 34413 ft 442 kts 234°
2026-04-26 08:20 -35.02514 150.00962 34717 ft 441 kts 234°
2026-04-26 08:20 -35.04308 149.97926 34983 ft 441 kts 234°
2026-04-26 08:20 -35.06094 149.94897 35271 ft 440 kts 235°
2026-04-26 08:21 -35.07884 149.91861 35503 ft 440 kts 234°
2026-04-26 08:21 -35.09675 149.88826 35754 ft 440 kts 235°
2026-04-26 08:21 -35.11463 149.85790 36014 ft 440 kts 235°
2026-04-26 08:21 -35.13250 149.82754 36187 ft 441 kts 236°
2026-04-26 08:22 -35.16802 149.76715 36228 ft 436 kts 236°
2026-04-26 08:22 -35.20336 149.70700 36231 ft 435 kts 236°
2026-04-26 08:23 -35.23857 149.64684 36229 ft 435 kts 235°
2026-04-26 08:23 -35.27371 149.58665 36239 ft 435 kts 235°
2026-04-26 08:24 -35.30881 149.52649 36239 ft 434 kts 236°
2026-04-26 08:24 -35.34394 149.46629 36250 ft 434 kts 236°
2026-04-26 08:25 -35.37905 149.40600 36255 ft 435 kts 236°
2026-04-26 08:25 -35.41409 149.34565 36263 ft 435 kts 236°
2026-04-26 08:26 -35.44913 149.28514 36261 ft 435 kts 236°
2026-04-26 08:26 -35.48414 149.22458 36255 ft 435 kts 236°
2026-04-26 08:27 -35.51917 149.16396 36251 ft 436 kts 235°
2026-04-26 08:27 -35.55425 149.10327 36245 ft 436 kts 236°
2026-04-26 08:28 -35.58925 149.04236 36232 ft 436 kts 236°
2026-04-26 08:28 -35.62423 148.98144 36235 ft 436 kts 236°
2026-04-26 08:29 -35.65919 148.92045 36242 ft 436 kts 236°
2026-04-26 08:29 -35.69409 148.85936 36244 ft 436 kts 236°
2026-04-26 08:30 -35.72903 148.79834 36251 ft 436 kts 236°
2026-04-26 08:30 -35.76393 148.73734 36248 ft 435 kts 236°
2026-04-26 08:31 -35.79870 148.67639 36257 ft 435 kts 236°
2026-04-26 08:31 -35.83338 148.61542 36258 ft 434 kts 236°
2026-04-26 08:32 -35.86793 148.55445 36259 ft 434 kts 236°
2026-04-26 08:32 -35.90252 148.49339 36256 ft 434 kts 236°
2026-04-26 08:33 -35.93695 148.43214 36257 ft 434 kts 237°
2026-04-26 08:33 -35.97135 148.37090 36261 ft 434 kts 237°
2026-04-26 08:34 -36.00575 148.30961 36267 ft 434 kts 237°
2026-04-26 08:34 -36.04004 148.24842 36260 ft 433 kts 237°
2026-04-26 08:35 -36.07434 148.18718 36264 ft 433 kts 237°
2026-04-26 08:35 -36.10855 148.12578 36245 ft 434 kts 237°
2026-04-26 08:36 -36.13706 148.07468 36242 ft 434 kts 237°
2026-04-26 08:36 -36.17706 148.00325 36240 ft 435 kts 237°
2026-04-26 08:37 -36.21148 147.94170 36242 ft 435 kts 237°
2026-04-26 08:37 -36.24030 147.89000 36235 ft 435 kts 237°
2026-04-26 08:38 -36.27462 147.82824 36237 ft 436 kts 237°
2026-04-26 08:38 -36.30899 147.76629 36236 ft 436 kts 237°
2026-04-26 08:39 -36.34334 147.70431 36238 ft 436 kts 237°
2026-04-26 08:39 -36.37760 147.64217 36241 ft 436 kts 238°
2026-04-26 08:40 -36.41188 147.57984 36233 ft 437 kts 238°
2026-04-26 08:40 -36.44617 147.51745 36239 ft 437 kts 238°
2026-04-26 08:41 -36.48046 147.45496 36237 ft 438 kts 238°
2026-04-26 08:41 -36.51448 147.39282 36238 ft 438 kts 238°
2026-04-26 08:42 -36.54867 147.33018 36240 ft 438 kts 238°
2026-04-26 08:42 -36.58293 147.26745 36239 ft 438 kts 238°
2026-04-26 08:43 -36.61718 147.20471 36239 ft 438 kts 238°
2026-04-26 08:43 -36.65136 147.14190 36241 ft 438 kts 238°
2026-04-26 08:44 -36.68543 147.07889 36242 ft 438 kts 238°
2026-04-26 08:44 -36.71951 147.01588 36237 ft 438 kts 238°
2026-04-26 08:45 -36.75364 146.95284 36242 ft 439 kts 238°
2026-04-26 08:45 -36.78774 146.88970 36127 ft 439 kts 238°
2026-04-26 08:46 -36.80477 146.85807 35878 ft 438 kts 238°
2026-04-26 08:46 -36.82176 146.82651 35626 ft 438 kts 238°
2026-04-26 08:46 -36.83874 146.79491 35378 ft 439 kts 238°
2026-04-26 08:46 -36.85578 146.76317 35106 ft 439 kts 238°
2026-04-26 08:47 -36.87289 146.73129 34387 ft 443 kts 238°
2026-04-26 08:47 -36.89012 146.69913 33455 ft 450 kts 238°
2026-04-26 08:47 -36.90747 146.66677 32959 ft 445 kts 238°
2026-04-26 08:47 -36.92467 146.63472 32401 ft 442 kts 238°
2026-04-26 08:48 -36.94174 146.60287 31853 ft 439 kts 238°
2026-04-26 08:48 -36.95867 146.57123 31315 ft 437 kts 238°
2026-04-26 08:48 -36.97547 146.53974 30774 ft 434 kts 238°
2026-04-26 08:48 -36.99216 146.50839 30231 ft 432 kts 238°
2026-04-26 08:49 -37.00875 146.47724 29659 ft 428 kts 238°
2026-04-26 08:49 -37.02516 146.44641 29142 ft 424 kts 238°
2026-04-26 08:49 -37.04139 146.41586 28622 ft 419 kts 238°
2026-04-26 08:49 -37.05745 146.38562 28129 ft 415 kts 239°
2026-04-26 08:50 -37.07338 146.35563 27614 ft 412 kts 239°
2026-04-26 08:50 -37.08914 146.32590 27124 ft 408 kts 239°
2026-04-26 08:50 -37.10478 146.29642 26625 ft 405 kts 239°
2026-04-26 08:50 -37.12028 146.26716 26148 ft 401 kts 239°
2026-04-26 08:51 -37.15080 146.20934 25311 ft 393 kts 239°
2026-04-26 08:51 -37.16588 146.18074 25203 ft 393 kts 239°
2026-04-26 08:51 -37.18097 146.15210 25233 ft 394 kts 239°
2026-04-26 08:52 -37.19606 146.12346 25018 ft 394 kts 239°
2026-04-26 08:52 -37.21136 146.09439 24086 ft 404 kts 239°
2026-04-26 08:52 -37.22690 146.06482 23364 ft 406 kts 239°
2026-04-26 08:52 -37.24244 146.03528 22728 ft 405 kts 240°
2026-04-26 08:53 -37.25789 146.00591 22160 ft 401 kts 240°
2026-04-26 08:53 -37.27319 145.97684 21593 ft 398 kts 240°
2026-04-26 08:53 -37.28836 145.94792 21030 ft 395 kts 240°
2026-04-26 08:53 -37.30330 145.91945 20371 ft 382 kts 240°
2026-04-26 08:54 -37.31753 145.89246 19914 ft 363 kts 240°
2026-04-26 08:54 -37.33145 145.86601 19454 ft 362 kts 240°
2026-04-26 08:54 -37.34529 145.83963 18992 ft 361 kts 240°
2026-04-26 08:54 -37.35906 145.81330 18555 ft 360 kts 241°
2026-04-26 08:55 -37.37279 145.78702 18061 ft 359 kts 240°
2026-04-26 08:55 -37.38646 145.76086 17614 ft 356 kts 240°
2026-04-26 08:55 -37.40000 145.73499 17176 ft 353 kts 240°
2026-04-26 08:55 -37.41343 145.70928 16748 ft 350 kts 240°
2026-04-26 08:56 -37.42677 145.68374 16318 ft 348 kts 240°
2026-04-26 08:56 -37.43936 145.65802 15889 ft 342 kts 247°
2026-04-26 08:56 -37.44744 145.63028 15482 ft 335 kts 260°
2026-04-26 08:56 -37.45029 145.60157 15072 ft 328 kts 272°
2026-04-26 08:57 -37.44995 145.57300 14666 ft 325 kts 273°
2026-04-26 08:57 -37.44960 145.54462 14265 ft 323 kts 273°
2026-04-26 08:57 -37.44929 145.51638 13837 ft 322 kts 273°
2026-04-26 08:57 -37.44900 145.48839 13423 ft 319 kts 273°
2026-04-26 08:58 -37.44869 145.46065 13011 ft 316 kts 273°
2026-04-26 08:58 -37.44838 145.43309 12615 ft 313 kts 273°
2026-04-26 08:58 -37.44809 145.40575 12200 ft 311 kts 273°
2026-04-26 08:58 -37.44780 145.37860 11787 ft 310 kts 273°
2026-04-26 08:59 -37.44748 145.35160 11371 ft 308 kts 273°
2026-04-26 08:59 -37.44713 145.32470 10958 ft 306 kts 273°
2026-04-26 08:59 -37.44678 145.29800 10546 ft 305 kts 273°
2026-04-26 08:59 -37.44646 145.27158 10353 ft 296 kts 273°
2026-04-26 09:00 -37.44613 145.24613 10193 ft 286 kts 273°
2026-04-26 09:00 -37.44580 145.22129 9904 ft 281 kts 273°
2026-04-26 09:00 -37.44546 145.19664 9377 ft 282 kts 274°
2026-04-26 09:00 -37.44511 145.17220 8833 ft 276 kts 274°
2026-04-26 09:01 -37.44477 145.14813 8302 ft 274 kts 273°
2026-04-26 09:01 -37.44443 145.12438 7774 ft 270 kts 274°
2026-04-26 09:01 -37.44410 145.10091 7257 ft 267 kts 274°
2026-04-26 09:01 -37.44375 145.07772 6877 ft 263 kts 274°
2026-04-26 09:02 -37.44341 145.05494 6595 ft 254 kts 274°
2026-04-26 09:02 -37.44313 145.03331 6319 ft 242 kts 275°
2026-04-26 09:02 -37.44284 145.01252 6046 ft 239 kts 274°
2026-04-26 09:02 -37.44252 144.99141 5770 ft 236 kts 275°
2026-04-26 09:03 -37.44220 144.97088 5497 ft 234 kts 274°
2026-04-26 09:03 -37.44187 144.95050 5226 ft 232 kts 274°
2026-04-26 09:03 -37.44351 144.93033 4951 ft 233 kts 264°
2026-04-26 09:03 -37.44637 144.91041 4672 ft 232 kts 264°
2026-04-26 09:04 -37.44919 144.89054 4419 ft 226 kts 264°
2026-04-26 09:04 -37.45193 144.87132 4134 ft 220 kts 264°
2026-04-26 09:04 -37.45460 144.85267 3860 ft 214 kts 264°
2026-04-26 09:04 -37.45909 144.83492 3584 ft 215 kts 247°
2026-04-26 09:05 -37.46810 144.82017 3331 ft 211 kts 225°
2026-04-26 09:05 -37.48008 144.81056 3070 ft 201 kts 204°
2026-04-26 09:05 -37.49318 144.80661 2946 ft 190 kts 186°
2026-04-26 09:05 -37.50621 144.80753 2948 ft 187 kts 171°
2026-04-26 09:06 -37.51905 144.80992 2949 ft 185 kts 173°
2026-04-26 09:06 -37.53166 144.81228 2769 ft 183 kts 171°
2026-04-26 09:06 -37.54420 144.81461 2563 ft 180 kts 173°
2026-04-26 09:06 -37.55666 144.81693 2344 ft 182 kts 171°
2026-04-26 09:07 -37.56898 144.81922 2093 ft 174 kts 172°
2026-04-26 09:07 -37.58083 144.82142 1885 ft 170 kts 169°
2026-04-26 09:07 -37.59263 144.82362 1627 ft 170 kts 171°
2026-04-26 09:07 -37.60419 144.82578 1420 ft 168 kts 170°
2026-04-26 09:08 -37.61569 144.82792 1211 ft 167 kts 171°
2026-04-26 09:08 -37.62704 144.83003 981 ft 166 kts 170°
2026-04-26 09:08 -37.63802 144.83208 790 ft 154 kts 169°
2026-04-26 09:08 -37.64871 144.83409 577 ft 161 kts 172°
2026-04-26 09:09 -37.66010 144.83615 426 ft 161 kts 171°
2026-04-26 09:09 -37.66953 144.83801 383 ft 108 kts 172°
2026-04-26 09:09 -37.67539 144.83904 363 ft 65 kts 172°
2026-04-26 09:09 -37.67823 144.83971 355 ft 23 kts 141°
2026-04-26 09:10 -37.67870 144.84102 358 ft 0 kts 90°
2026-04-26 09:10 -37.67870 144.84107 358 ft 2 kts 90°
2026-04-26 09:11 -37.67868 144.84151 351 ft 8 kts 83°
2026-04-26 09:11 -37.67858 144.84243 351 ft 14 kts 81°
2026-04-26 09:11 -37.67796 144.84357 358 ft 19 kts 29°
2026-04-26 09:11 -37.67654 144.84357 359 ft 20 kts 351°
2026-04-26 09:12 -37.67522 144.84330 361 ft 18 kts 351°
2026-04-26 09:12 -37.67402 144.84308 368 ft 17 kts 352°
2026-04-26 09:12 -37.67297 144.84290 370 ft 11 kts 353°
2026-04-26 09:12 -37.67252 144.84330 368 ft 9 kts 65°
2026-04-26 09:13 -37.67222 144.84401 367 ft 9 kts 73°
2026-04-26 09:13 -37.67213 144.84490 362 ft 11 kts 84°
2026-04-26 09:13 -37.67203 144.84589 358 ft 9 kts 81°
2026-04-26 09:13 -37.67192 144.84676 358 ft 10 kts 81°
2026-04-26 09:14 -37.67210 144.84751 360 ft 7 kts 135°
2026-04-26 09:14 -37.67245 144.84760 359 ft 5 kts 184°
2026-04-26 09:14 -37.67258 144.84759 358 ft 0 kts 184°